Location: Angola by the Bay
(38.6709°N, 75.1746°W)
Time: 00:50:41
(UTC+00:00)

Gurwin Techsat 1B - Pass Details

Date: 15 December 2025
Orbit: 810 x 811 km, 99.0° (Epoch: 19 January)

Event Time Altitude Azimuth Distance (km) Brightness Sun altitude
Rises 11:14:14 0° 356° (N) 3,338 11.6 -10.9°
Reaches altitude 10° 11:17:15 10° 339° (NNW) 2,403 10.7 -10.4°
Maximum altitude 11:20:45 18° 297° (WNW) 1,888 9.9 -9.8°
Drops below altitude 10° 11:24:14 10° 256° (WSW) 2,394 10.6 -9.1°
Sets 11:27:15 0° 238° (WSW) 3,321 11.5 -8.6°
